Content
SEND FEEDBACK

Daily
Averages
Monthly
Summary
United States of America

HAWKINSVILLE, GEORGIA


Home > North America > United States > Georgia
Elevation: 224 feet     Latitude: 32 17N     Longitude: 083 28W

WEATHER
 
SELECT A DAY
Number of Records: 71,836;   Date Range: 10/21/11 - 12/24/14
 
SHARE

PRINT THIS DATA

[ ← Previous Day ]
WEATHER ALMANAC - FEBRUARY 13, 2013
[ Next Day → ]
[ °C ]   °F
Weather ElementAverageHighLow
Temperature58 °F68.2 °F (12:55 pm)49.3 °F (11:55 pm)
Dewpoint50.7 °F60.3 °F (9:15 am)41.7 °F (2:35 pm)
Humidity79.2 %96 % (5:15 am)42 % (2:35 pm)
Barometer29.86 in29.98 in (9:35 pm)29.78 in (5:15 am)
Wind Speed6.4 mph18.4 mph (9:35 am)
Wind Gust25.3 mph (1:35 pm)
Weather ElementAverage
Visibility8.5 mi
Wind DirectionS (184.5 °)

Weather ElementTotal
Precipitation---
Heating Degree Days6.3 (Base 65)
Growing Degree Days8.8 (Base 50)
Averaged from 71 records on February 13, 2013
WEATHER CONDITIONS BREAKOUT
WIND DIRECTION BREAKOUT
WEATHER BY HOUR - FEBRUARY 13, 2013
[ °C ]   °F
Local TimeTemperatureDewpointHumidityBarometerVisibilityWind DirectionWind SpeedGust SpeedPrecipitationEventsConditions
12:35 AM56.3 °F54.5 °F94 %29.83 in10.0 miENE (60°)5.8 mphOvercast
12:55 AM56.3 °F54.3 °F93 %29.84 in10.0 miNNE (30°)4.6 mphThunderstormOvercast
1:15 AM56.3 °F54.1 °F92 %29.82 in10.0 miEast (80°)8.1 mphThunderstormOvercast
1:35 AM56.3 °F54.5 °F94 %29.81 in10.0 miSE (130°)3.5 mphThunderstormThunderstorm
1:55 AM56.5 °F54.5 °F93 %29.82 in10.0 miCalmOvercast
2:15 AM56.5 °F54.7 °F94 %29.83 in10.0 miNE (50°)4.6 mphThunderstormOvercast
2:35 AM56.3 °F54.7 °F94 %29.83 in10.0 miCalmOvercast
2:55 AM56.3 °F54.7 °F94 %29.82 in10.0 miCalmThunderstormOvercast
3:15 AM56.3 °F54.5 °F94 %29.81 in10.0 miCalmThunderstormOvercast
3:35 AM56.3 °F54.5 °F94 %29.80 in10.0 miCalmThunderstormThunderstorm
3:55 AM56.3 °F54.7 °F94 %29.79 in10.0 miNE (50°)3.5 mphOvercast
4:15 AM56.3 °F54.7 °F94 %29.81 in5.0 miCalmThunderstormOvercast
4:35 AM56.3 °F54.7 °F94 %29.79 in4.0 miCalmOvercast
4:55 AM56.3 °F54.9 °F95 %29.79 in4.0 miCalmOvercast
5:15 AM56.3 °F55.0 °F96 %29.78 in5.0 miCalmThunderstormOvercast
5:35 AM56.3 °F54.9 °F95 %29.80 in5.0 miCalmOvercast
5:55 AM56.3 °F55.0 °F96 %29.79 in7.0 miCalmRainLight Rain
6:15 AM56.3 °F55.0 °F96 %29.80 in5.0 miCalmOvercast
6:35 AM56.3 °F55.0 °F96 %29.81 in3.0 miCalmOvercast
6:55 AM56.5 °F55.2 °F96 %29.82 in2.0 miCalmOvercast
7:15 AM56.5 °F55.4 °F96 %29.82 in2.5 miCalmRainRain
7:35 AM56.7 °F55.4 °F96 %29.83 in1.2 miCalmOvercast
7:55 AM56.8 °F55.6 °F96 %29.83 in0.8 miCalmOvercast
8:15 AM57.4 °F56.3 °F96 %29.83 in1.0 miCalmOvercast
8:35 AM57.9 °F56.7 °F96 %29.84 in0.8 miSW (230°)3.5 mphOvercast
8:55 AM59.4 °F58.1 °F96 %29.84 in4.0 miWSW (250°)4.6 mphOvercast
9:15 AM61.7 °F60.3 °F95 %29.84 in3.0 miWSW (240°)8.1 mphOvercast
9:35 AM62.6 °F60.3 °F92 %29.86 in7.0 miWest (270°)18.4 mph24.2 mphOvercast
9:55 AM62.8 °F59.4 °F89 %29.86 in10.0 miWest (270°)6.9 mph17.3 mphMostly Cloudy
10:15 AM63.7 °F58.6 °F84 %29.86 in10.0 miWSW (250°)10.4 mph17.3 mphScattered Clouds
10:35 AM64.4 °F53.6 °F68 %29.84 in10.0 miWest (260°)11.5 mph16.1 mphClear
10:55 AM64.4 °F52.9 °F66 %29.85 in10.0 miWSW (250°)9.2 mphClear
11:15 AM65.3 °F52.3 °F63 %29.87 in10.0 miWest (270°)13.8 mph20.7 mphScattered Clouds
11:35 AM66.2 °F52.2 °F61 %29.85 in10.0 miWest (260°)10.4 mph17.3 mphMostly Cloudy
11:55 AM65.5 °F51.4 °F60 %29.85 in10.0 miWest (270°)10.4 mphMostly Cloudy
12:15 PM66.9 °F51.4 °F57 %29.84 in10.0 miWest (270°)8.1 mph18.4 mphMostly Cloudy
12:35 PM66.6 °F47.1 °F50 %29.82 in10.0 miWest (280°)11.5 mph18.4 mphScattered Clouds
12:55 PM68.2 °F48.7 °F50 %29.84 in10.0 miWest (270°)9.2 mph16.1 mphClear
1:15 PM67.8 °F47.7 °F48 %29.83 in10.0 miWest (280°)18.4 mph24.2 mphClear
1:35 PM66.7 °F44.8 °F45 %29.83 in10.0 miWNW (290°)12.7 mph25.3 mphClear
1:55 PM67.1 °F46.8 °F48 %29.83 in10.0 miWest (270°)11.5 mph20.7 mphClear
2:15 PM66.6 °F43.7 °F44 %29.83 in10.0 miWNW (290°)13.8 mph19.6 mphClear
2:35 PM65.7 °F41.7 °F42 %29.82 in10.0 miWest (280°)15.0 mph21.9 mphClear
2:55 PM64.0 °F41.9 °F44 %29.83 in10.0 miWNW (290°)12.7 mph19.6 mphScattered Clouds
3:15 PM63.5 °F44.2 °F49 %29.83 in10.0 miWest (280°)9.2 mphOvercast
3:35 PM63.9 °F42.6 °F46 %29.85 in10.0 miWest (260°)11.5 mph20.7 mphMostly Cloudy
3:55 PM63.7 °F43.5 °F48 %29.84 in10.0 miWest (270°)10.4 mph16.1 mphOvercast
4:15 PM62.8 °F44.8 °F52 %29.85 in10.0 miWest (270°)8.1 mph18.4 mphOvercast
4:35 PM62.4 °F46.0 °F55 %29.86 in10.0 miWest (270°)11.5 mph18.4 mphOvercast
4:55 PM61.7 °F45.5 °F55 %29.87 in10.0 miWest (260°)12.7 mph23.0 mphOvercast
5:15 PM60.1 °F46.0 °F60 %29.86 in10.0 miWest (280°)15.0 mph24.2 mphOvercast
5:35 PM59.0 °F47.7 °F66 %29.89 in10.0 miNW (310°)8.1 mphOvercast
5:55 PM56.3 °F48.4 °F75 %29.88 in10.0 miWNW (300°)11.5 mph16.1 mphOvercast
6:15 PM55.4 °F48.2 °F77 %29.89 in10.0 miWNW (300°)9.2 mphOvercast
6:35 PM53.2 °F46.6 °F78 %29.91 in10.0 miWNW (290°)10.4 mph24.2 mphLight Drizzle
6:55 PM52.3 °F46.6 °F81 %29.92 in10.0 miWest (270°)8.1 mph16.1 mphRainLight Rain
7:15 PM51.3 °F47.3 °F86 %29.94 in10.0 miWest (280°)9.2 mphRainLight Rain
7:35 PM50.9 °F47.3 °F87 %29.94 in10.0 miWNW (290°)5.8 mphMostly Cloudy
7:55 PM50.9 °F47.3 °F87 %29.94 in10.0 miWest (280°)5.8 mphScattered Clouds
8:15 PM50.9 °F47.3 °F87 %29.95 in10.0 miWSW (250°)5.8 mphScattered Clouds
8:35 PM50.9 °F47.3 °F87 %29.95 in10.0 miWest (260°)4.6 mphClear
8:55 PM50.9 °F46.9 °F86 %29.95 in10.0 miWest (270°)5.8 mphClear
9:15 PM50.7 °F46.9 °F87 %29.96 in10.0 miWest (260°)5.8 mphScattered Clouds
9:35 PM50.5 °F47.1 °F88 %29.98 in10.0 miWSW (250°)3.5 mphScattered Clouds
9:55 PM50.4 °F47.3 °F89 %29.98 in10.0 miWSW (250°)4.6 mphClear
10:15 PM50.2 °F46.8 °F88 %29.98 in10.0 miWest (260°)5.8 mphClear
10:35 PM50.0 °F46.8 °F89 %29.98 in10.0 miWest (260°)3.5 mphClear
10:55 PM50.0 °F46.4 °F87 %29.97 in10.0 miWest (260°)3.5 mphClear
11:15 PM49.8 °F46.0 °F87 %29.97 in10.0 miWest (270°)3.5 mphClear
11:35 PM49.6 °F45.7 °F86 %29.97 in10.0 miWest (280°)4.6 mphClear
11:55 PM49.3 °F45.5 °F87 %29.96 in10.0 miWest (280°)4.6 mphClear
Hourly data recorded from KEZM, located miles away from Hawkinsville, Georgia







STORIES FROM OUR PARTNERS